Frederick, MD

7:13 AM EDT on October 14, 2019 (GMT -0400)
Frederick Municipal

Weather History for KFDK - August, 2019

Change the Weather History Date:

Monday, August 26, 2019

  Actual Average (WUND) Record (WUND)
Temperature  
Mean Temperature 66 °F -  
Max Temperature 78 °F - - (-1)
Min Temperature 55 °F - - (-1)
Cooling Degree Days 2    
Growing Degree Days 16 (Base 50)    
Moisture  
Dew Point 58 °F    
Average Humidity 81    
Maximum Humidity 100    
Minimum Humidity 47    
Precipitation  
Precipitation 0.00 in - - ()
Sea Level Pressure  
Sea Level Pressure 30.20 in    
Wind  
Wind Speed 2 mph (ENE)    
Max Wind Speed 10 mph    
Max Gust Speed -    
Visibility 10 miles    
Events      
Averages and records for this station are not official NWS values.
T = Trace of Precipitation, MM = Missing Value Source: NWS Daily Summary

Daily Weather History Graph

Daily Weather History Graph

Search for Another Location

Airport or City:

Astronomy

Aug. 26, 2019 Rise Set
Actual Time 6:32 AM EDT 7:49 PM EDT
Civil Twilight 6:04 AM EDT 8:17 PM EDT
Nautical Twilight 5:30 AM EDT 8:51 PM EDT
Astronomical Twilight 4:55 AM EDT 9:25 PM EDT
Moon 1:56 AM EDT (8/26) 5:10 PM EDT (8/26)
Length of Visible Light 14h 13m
Length of Day
13h 17m
Waning Crescent, 19% of the Moon is Illuminated
Aug 26
Waning Crescent
Aug 30
New
Sep 5
First Quarter
Sep 14
Full
Sep 21
Last Quarter

Hourly Weather History & Observations

Time (EDT) Temp. Dew Point Humidity Pressure Visibility Wind Dir Wind Speed Gust Speed Precip Events Conditions
12:10 AM 60.8 °F 57.2 °F 88% 30.24 in 10.0 mi NNE 3.5 mph - N/A   Clear
12:30 AM 60.8 °F 59.0 °F 94% 30.24 in 10.0 mi Calm Calm - N/A   Clear
12:50 AM 60.8 °F 59.0 °F 94% 30.24 in 10.0 mi Calm Calm - N/A   Clear
1:10 AM 60.8 °F 57.2 °F 88% 30.23 in 10.0 mi NNE 4.6 mph - N/A   Clear
1:30 AM 60.8 °F 57.2 °F 88% 30.23 in 10.0 mi Calm Calm - N/A   Clear
1:50 AM 60.8 °F 57.2 °F 88% 30.23 in 10.0 mi Calm Calm - N/A   Clear
2:30 AM 59.0 °F 57.2 °F 94% 30.23 in 10.0 mi Calm Calm - N/A   Clear
2:50 AM 59.0 °F 57.2 °F 94% 30.23 in 10.0 mi NNE 4.6 mph - N/A   Clear
3:10 AM 59.0 °F 57.2 °F 94% 30.23 in 10.0 mi NNE 3.5 mph - N/A   Clear
3:30 AM 59.0 °F 55.4 °F 88% 30.22 in 10.0 mi Calm Calm - N/A   Clear
4:10 AM 59.0 °F 55.4 °F 88% 30.22 in 10.0 mi Calm Calm - N/A   Clear
4:30 AM 59.0 °F 55.4 °F 88% 30.22 in 10.0 mi Calm Calm - N/A   Clear
4:50 AM 59.0 °F 55.4 °F 88% 30.22 in 10.0 mi Calm Calm - N/A   Clear
5:10 AM 59.0 °F 55.4 °F 88% 30.22 in 10.0 mi Calm Calm - N/A   Clear
5:30 AM 57.2 °F 55.4 °F 94% 30.23 in 10.0 mi NE 3.5 mph - N/A   Clear
5:50 AM 57.2 °F 55.4 °F 94% 30.24 in 10.0 mi NNE 4.6 mph - N/A   Clear
6:10 AM 57.2 °F 55.4 °F 94% 30.23 in 10.0 mi NE 3.5 mph - N/A   Clear
6:30 AM 55.4 °F 55.4 °F 100% 30.23 in 10.0 mi North 3.5 mph - N/A   Clear
6:50 AM 57.2 °F 55.4 °F 94% 30.24 in 10.0 mi North 3.5 mph - N/A   Clear
10:47 AM 71.6 °F 57.2 °F 60% 30.23 in 10.0 mi ENE 9.2 mph - N/A   Partly Cloudy
11:52 AM 73.4 °F 55.4 °F 53% 30.23 in - East 4.6 mph - N/A   Scattered Clouds
12:52 PM 75.2 °F 55.4 °F 50% 30.19 in 10.0 mi ENE 6.9 mph - N/A   Scattered Clouds
1:47 PM 77.0 °F 55.4 °F 47% 30.18 in 10.0 mi East 8.1 mph - N/A   Scattered Clouds
2:47 PM 77.0 °F 57.2 °F 50% 30.17 in 10.0 mi East 3.5 mph - N/A   Mostly Cloudy
4:47 PM 78.8 °F 59.0 °F 51% 30.13 in 10.0 mi South 10.4 mph - N/A   Mostly Cloudy
5:47 PM 75.2 °F 60.8 °F 61% 30.14 in 10.0 mi SSE 5.8 mph - N/A   Overcast
6:47 PM 73.4 °F 60.8 °F 65% 30.14 in 10.0 mi SSE 6.9 mph - N/A   Overcast
7:47 PM 71.6 °F 60.8 °F 69% 30.13 in 10.0 mi SE 5.8 mph - N/A   Clear
8:47 PM 69.8 °F 60.8 °F 73% 30.13 in 10.0 mi East 4.6 mph - N/A   Clear
9:30 PM 68.0 °F 60.8 °F 78% 30.15 in 10.0 mi Calm Calm - N/A   Clear
9:50 PM 68.0 °F 60.8 °F 78% 30.16 in 10.0 mi Calm Calm - N/A   Clear
10:10 PM 66.2 °F 60.8 °F 83% 30.16 in 10.0 mi Calm Calm - N/A   Clear
10:30 PM 64.4 °F 60.8 °F 88% 30.17 in 10.0 mi Calm Calm - N/A   Mostly Cloudy
10:50 PM 66.2 °F 60.8 °F 83% 30.17 in 10.0 mi Calm Calm - N/A   Overcast
11:10 PM 64.4 °F 60.8 °F 88% 30.17 in 10.0 mi Calm Calm - N/A   Scattered Clouds
11:30 PM 64.4 °F 60.8 °F 88% 30.16 in 10.0 mi Calm Calm - N/A   Mostly Cloudy
11:50 PM 64.4 °F 60.8 °F 88% 30.17 in 10.0 mi Calm Calm - N/A   Overcast